Simultaneous Nadir Overpasses (SNOs) Predictions

Prediction of SNOs between GOES-17 and NOAA-20 Satellite Orbit:

Table of predicted SNOs for the next 14.0 days since TLE Epoch: 10/30/2020
Index Date Time (GOES-17) GOES-17 Lat,Lon NOAA-20 Lat,Lon Distance(km) Time Diff (sec)
1 11/01/2020 22:33:37 -0.02,-137.21 -0.13,-137.58 43.12 80
2 11/02/2020 22:17:33 -0.03,-137.20 0.92,-133.06 472.59 80
3 11/04/2020 10:36:42 0.02,-137.19 0.28,-138.33 129.52 80
4 11/05/2020 10:20:37 0.02,-137.18 -0.72,-133.79 385.51 80
5 11/06/2020 22:39:55 -0.02,-137.16 -0.45,-139.10 221.90 80
6 11/07/2020 22:23:50 -0.01,-137.14 0.54,-134.57 292.71 80
7 11/09/2020 10:42:59 0.01,-137.12 0.60,-139.85 310.71 80
8 11/10/2020 10:26:55 0.01,-137.10 -0.39,-135.32 203.55 80
9 11/11/2020 22:46:11 -0.01,-137.07 -0.83,-140.62 404.85 80
10 11/12/2020 22:30:08 -0.01,-137.05 0.22,-136.10 109.18 80
